User: anonymous   Login
Location: Unspecified
(0.0000°N, 0.0000°E)
Time: 00:58:30
(UTC+00:00)
Language:

FORMOSAT 3E - Orbit

View from above orbital plane
View from above orbital plane
View from above satellite
View from above satellite

Ground track
Ground track

The orbit data is extracted from the following two-line orbital elements,

1 29051U 06011E   24106.48659943  .00000971  00000-0  38290-3 0  9998
2 29051  72.0019 123.0344 0066438  24.3404 336.0846 14.29994860941870
Epoch (UTC): 15 April 2024 11:40:42
Eccentricity: 0.0066438
inclination: 72.0019°
perigee height: 744 km
apogee height: 839 km
right ascension of ascending node: 123.0344°
argument of perigee: 24.3404°
revolutions per day: 14.29994860
mean anomaly at epoch: 336.0846°
orbit number at epoch: 94187

The dashed part of the orbit path shows where the satellite is in the earth's shadow,  

DLR